Weather History for Caldwell, NJ

Change the Weather History Date:

Wednesday, December 12, 2012

  Actual Average Record
Temperature  
Mean Temperature 36 °F -  
Max Temperature 42 °F 41 °F 63 °F (1971)
Min Temperature 30 °F 25 °F 2 °F (1988)
Degree Days  
Heating Degree Days 29    
Moisture  
Dew Point 25 °F    
Average Humidity 67    
Maximum Humidity 89    
Minimum Humidity 45    
Precipitation  
Precipitation 0.00 in - - ()
Sea Level Pressure  
Sea Level Pressure 30.38 in    
Wind  
Wind Speed 1 mph (WNW)    
Max Wind Speed 8 mph    
Max Gust Speed -    
Visibility 10 miles    
Events      
Averages and records for this station are not official NWS values.
T = Trace of Precipitation, MM = Missing Value Source: NWS Daily Summary

Daily Weather History Graph

Daily Weather History Graph

Search for Another Location

Airport:

Trip Planner

Search our weather history database for the weather conditions in past years. The results will help you decide how hot, cold, wet, or windy it might be!

Date:

Astronomy

Dec. 12, 2012 Rise Set
Actual Time 7:12 AM EST 4:29 PM EST
Civil Twilight 6:41 AM EST 5:00 PM EST
Nautical Twilight 6:07 AM EST 5:34 PM EST
Astronomical Twilight 5:33 AM EST 6:08 PM EST
Moon 6:13 AM EST (12/12) 4:04 PM EST (12/12)
Length of Visible Light 10h 18m
Length of Day
9h 16m
Waning Crescent, 1% of the Moon is Illuminated
Dec 12
Waning Crescent
Dec 13
New
Dec 20
First Quarter
Dec 28
Full
Jan 4
Last Quarter

Hourly Weather History & Observations

Time (EST) Temp. Windchill Dew Point Humidity Pressure Visibility Wind Dir Wind Speed Gust Speed Precip Events Conditions
12:53 AM 35.1 °F - 28.0 °F 76% 30.23 in 10.0 mi Calm Calm - N/A   Clear
1:53 AM 33.1 °F - 27.0 °F 78% 30.25 in 10.0 mi Calm Calm - N/A   Clear
2:53 AM 30.9 °F - 26.1 °F 82% 30.28 in 10.0 mi Calm Calm - N/A   Clear
3:53 AM 30.0 °F - 26.1 °F 85% 30.30 in 10.0 mi Calm Calm - N/A   Clear
4:53 AM 30.9 °F - 26.1 °F 82% 30.32 in 10.0 mi Calm Calm - N/A   Clear
5:53 AM 30.0 °F - 26.1 °F 85% 30.35 in 10.0 mi Calm Calm - N/A   Clear
6:53 AM 30.0 °F - 27.0 °F 88% 30.37 in 10.0 mi Calm Calm - N/A   Clear
7:53 AM 30.9 °F - 28.0 °F 89% 30.38 in 10.0 mi Calm Calm - N/A   Clear
8:53 AM 36.0 °F - 27.0 °F 70% 30.40 in 10.0 mi Calm Calm - N/A   Clear
9:53 AM 39.9 °F - 26.1 °F 58% 30.41 in 10.0 mi Calm Calm - N/A   Clear
10:53 AM 39.9 °F 37.8 °F 25.0 °F 55% 30.41 in 10.0 mi NW 3.5 mph - N/A   Clear
11:53 AM 42.1 °F 37.1 °F 21.9 °F 45% 30.40 in 10.0 mi NW 8.1 mph - N/A   Clear
12:53 PM 42.1 °F 37.7 °F 21.9 °F 45% 30.39 in 10.0 mi WNW 6.9 mph - N/A   Clear
1:53 PM 42.1 °F 39.2 °F 21.9 °F 45% 30.39 in 10.0 mi WSW 4.6 mph - N/A   Clear
2:53 PM 42.1 °F 40.2 °F 21.9 °F 45% 30.40 in 10.0 mi NNW 3.5 mph - N/A   Clear
3:53 PM 42.1 °F 39.2 °F 23.0 °F 47% 30.40 in 10.0 mi WNW 4.6 mph - N/A   Clear
4:53 PM 39.9 °F 37.8 °F 23.0 °F 51% 30.42 in 10.0 mi NW 3.5 mph - N/A   Clear
5:53 PM 37.0 °F - 24.1 °F 59% 30.43 in 10.0 mi Calm Calm - N/A   Clear
6:53 PM 37.0 °F - 25.0 °F 62% 30.42 in 10.0 mi Calm Calm - N/A   Clear
7:53 PM 35.1 °F - 25.0 °F 67% 30.43 in 10.0 mi Calm Calm - N/A   Clear
8:53 PM 34.0 °F - 26.1 °F 73% 30.46 in 10.0 mi Calm Calm - N/A   Clear
9:53 PM 33.1 °F - 26.1 °F 75% 30.46 in 10.0 mi Calm Calm - N/A   Clear
10:53 PM 32.0 °F - 26.1 °F 79% 30.46 in 10.0 mi Calm Calm - N/A   Clear
11:53 PM 32.0 °F - 25.0 °F 75% 30.47 in 10.0 mi Calm Calm - N/A   Clear